VE3KSR Weather Reports


Display with metric or nautical units.
time (UTC)temp
F
wind
direction
speed
MPH
gust
MPH
rain 1hr
in
rain 24hr
in
rain mn
in
humidity
%
barometer
mb
20160728180932 73 0 0.0 0.0 1.57 0.00 0.00 69 1009.1
20160728180522 73 0 0.0 0.0 1.57 0.00 0.00 68 1009.1
20160728180432 73 0 0.0 0.0 1.57 0.00 0.00 68 1009.1
20160728180025 74 0 0.0 0.0 1.57 0.00 0.00 67 1009.1
20160728175933 74 0 0.0 0.0 1.57 0.00 0.00 67 1009.1
20160728175432 74 0 0.0 0.0 1.57 0.00 0.00 67 1009.2
20160728175004 74 0 0.0 0.0 1.57 0.00 0.00 67 1009.4
20160728174932 74 0 0.0 0.0 1.57 0.00 0.00 67 1009.4
20160728174506 74 0 0.0 0.0 1.57 0.00 0.00 67 1009.4
20160728174432 74 0 0.0 0.0 1.57 0.00 0.00 67 1009.4
20160728173932 74 0 0.0 0.0 1.57 0.00 0.00 66 1009.4
20160728173432 74 0 0.0 0.0 1.57 0.00 0.00 68 1009.5
20160728173003 73 0 0.0 0.0 1.57 0.00 0.00 68 1009.4
20160728172932 73 0 0.0 0.0 1.57 0.00 0.00 68 1009.4
20160728172432 73 0 0.0 0.0 1.57 0.00 0.00 66 1009.6
20160728171932 74 0 0.0 0.0 1.57 0.00 0.00 68 1009.6
20160728171509 73 0 0.0 0.0 1.57 0.00 0.00 68 1009.6
20160728171432 73 0 0.0 0.0 1.57 0.00 0.00 68 1009.6
20160728170932 73 0 0.0 0.0 1.57 0.00 0.00 68 1009.6
20160728170432 73 0 0.0 0.0 1.57 0.00 0.00 68 1009.7
20160728165932 73 0 0.0 0.0 1.57 0.00 0.00 68 1009.7
20160728165504 73 0 0.0 0.0 1.57 0.00 0.00 69 1009.7
20160728165431 73 0 0.0 0.0 1.57 0.00 0.00 69 1009.7
20160728164931 73 0 0.0 0.0 1.57 0.00 0.00 68 1009.7
20160728164515 73 0 0.0 0.0 1.57 0.00 0.00 68 1009.8
20160728164434 73 0 0.0 0.0 1.57 0.00 0.00 68 1009.8
20160728163932 73 0 0.0 0.0 1.57 0.00 0.00 67 1009.9
20160728163515 73 0 0.0 0.0 1.57 0.00 0.00 68 1009.9
20160728163435 73 0 0.0 0.0 1.57 0.00 0.00 68 1009.9
20160728162932 73 0 0.0 0.0 1.57 0.00 0.00 69 1010.0
20160728162432 73 0 0.0 0.0 1.57 0.00 0.00 69 1010.0
20160728162005 73 0 0.0 0.0 1.57 0.00 0.00 70 1009.9
20160728161931 73 0 0.0 0.0 1.57 0.00 0.00 70 1009.9
20160728161505 73 0 0.0 0.0 1.57 0.00 0.00 70 1009.8
20160728161433 73 0 0.0 0.0 1.57 0.00 0.00 70 1009.8
20160728160932 72 0 0.0 0.0 1.57 0.00 0.00 71 1009.9
20160728160506 72 0 0.0 0.0 1.57 0.00 0.00 71 1010.0
20160728160434 72 0 0.0 0.0 1.57 0.00 0.00 71 1010.0
20160728160018 72 0 0.0 0.0 1.57 0.00 0.00 69 1009.8
20160728155932 72 0 0.0 0.0 1.57 0.00 0.00 69 1009.8
20160728155516 73 0 0.0 0.0 1.57 0.00 0.00 67 1009.9
20160728155436 73 0 0.0 0.0 1.57 0.00 0.00 67 1009.9
20160728155041 72 0 0.0 0.0 1.57 0.00 0.00 68 1009.9
20160728154934 72 0 0.0 0.0 1.57 0.00 0.00 68 1009.9
20160728154432 72 0 0.0 0.0 1.57 0.00 0.00 70 1010.0
20160728153932 71 0 0.0 0.0 1.57 0.00 0.00 70 1009.9
20160728153432 71 0 0.0 0.0 1.57 0.00 0.00 71 1010.0
20160728152932 71 0 0.0 0.0 1.57 0.00 0.00 72 1010.1
20160728152512 70 0 0.0 0.0 1.57 0.00 0.00 71 1010.1
20160728152433 70 0 0.0 0.0 1.57 0.00 0.00 71 1010.1
20160728152004 71 0 0.0 0.0 1.57 0.00 0.00 70 1010.2
20160728151932 71 0 0.0 0.0 1.57 0.00 0.00 70 1010.2
20160728151512 71 0 0.0 0.0 1.57 0.00 0.00 71 1010.2
20160728151432 71 0 0.0 0.0 1.57 0.00 0.00 71 1010.2
20160728150932 70 0 0.0 0.0 1.57 0.00 0.00 71 1010.2
20160728150517 70 108 1.0 6.0 1.57 0.00 0.00 71 1010.2
20160728150433 70 108 1.0 6.0 1.57 0.00 0.00 71 1010.2
20160728150006 70 0 0.0 0.0 1.57 0.00 0.00 71 1010.2
20160728145934 70 0 0.0 0.0 1.57 0.00 0.00 71 1010.2
20160728145432 69 212 5.0 7.0 1.57 0.00 0.00 71 1010.2
20160728144932 69 110 6.0 8.0 1.57 0.00 0.00 71 1010.2
20160728144432 70 138 6.0 8.0 1.57 0.00 0.00 69 1010.3
20160728143932 69 98 7.0 9.0 1.57 0.00 0.00 70 1010.1
20160728143433 69 124 8.0 10.0 1.57 0.00 0.00 69 1010.2
20160728142933 69 114 8.0 10.0 1.57 0.00 0.00 68 1010.2
20160728142432 69 97 6.0 7.0 1.57 0.00 0.00 68 1010.3
20160728141933 69 141 6.0 9.0 1.57 0.00 0.00 70 1010.4
20160728141434 68 156 6.0 7.0 1.57 0.00 0.00 72 1010.3
20160728140932 67 156 8.0 10.0 1.57 0.00 0.00 71 1010.2
20160728140432 67 169 7.0 9.0 1.57 0.00 0.00 72 1010.4
20160728135932 67 187 7.0 10.0 1.57 0.00 0.00 74 1010.2
20160728135432 67 136 7.0 9.0 1.57 0.00 0.00 75 1010.3
20160728134937 67 127 6.0 8.0 1.57 0.00 0.00 78 1010.4
20160728134434 67 148 6.0 7.0 1.57 0.00 0.00 78 1010.4
20160728133932 67 145 7.0 8.0 1.57 0.00 0.00 79 1010.3
20160728133432 66 111 8.0 10.0 1.57 0.00 0.00 80 1010.5
20160728132934 66 90 8.0 9.0 1.57 0.00 0.00 81 1010.5
20160728132433 66 167 9.0 10.0 1.57 0.00 0.00 82 1010.4
20160728131933 66 142 8.0 10.0 1.57 0.00 0.00 82 1010.5
20160728131504 66 145 7.0 9.0 1.57 0.00 0.00 84 1010.4
20160728131433 66 145 7.0 9.0 1.57 0.00 0.00 84 1010.4
20160728130932 66 111 9.0 10.0 1.57 0.00 0.00 85 1010.5
20160728130432 66 142 8.0 9.0 1.57 0.00 0.00 84 1010.5
20160728125934 66 146 7.0 9.0 1.57 0.00 0.00 85 1010.7
20160728125432 66 82 8.0 9.0 1.57 0.00 0.00 86 1010.4
20160728125346 65 170 7.0 10.0 1.57 0.00 0.00 87 1010.6
20160728124933 65 170 7.0 10.0 1.57 0.00 0.00 87 1010.6
20160728124433 65 160 8.0 10.0 1.57 0.00 0.00 87 1010.4
20160728123932 64 135 8.0 10.0 1.57 0.00 0.00 89 1010.6
20160728123432 64 139 9.0 10.0 1.57 0.00 0.00 89 1010.6
20160728122932 64 115 8.0 11.0 1.57 0.00 0.00 89 1010.4
20160728122436 64 98 8.0 10.0 1.57 0.00 0.00 89 1010.5
20160728121933 64 131 8.0 10.0 1.57 0.00 0.00 90 1010.5
20160728121434 63 111 8.0 10.0 1.57 0.00 0.00 90 1010.6
20160728120934 63 146 8.0 10.0 1.57 0.00 0.00 91 1010.6
20160728120434 62 118 8.0 9.0 1.57 0.00 0.00 92 1010.4
20160728115932 62 107 8.0 10.0 1.57 0.00 0.00 92 1010.5
20160728115834 62 101 9.0 11.0 1.57 0.00 0.00 93 1010.4
20160728115433 62 101 9.0 11.0 1.57 0.00 0.00 93 1010.4
20160728115015 62 97 9.0 12.0 1.57 0.00 0.00 93 1010.5
20160728114932 62 97 9.0 12.0 1.57 0.00 0.00 93 1010.5
20160728114510 62 98 9.0 11.0 1.57 0.00 0.00 93 1010.5
20160728114432 62 98 9.0 11.0 1.57 0.00 0.00 93 1010.5
20160728114016 62 83 9.0 11.0 1.57 0.00 0.00 93 1010.6
20160728113932 62 83 9.0 11.0 1.57 0.00 0.00 93 1010.6
20160728113432 62 114 8.0 9.0 1.57 0.00 0.00 93 1010.4
20160728113011 63 134 9.0 10.0 1.57 0.00 0.00 93 1010.1
20160728112933 63 134 9.0 10.0 1.57 0.00 0.00 93 1010.1
20160728112521 63 117 8.0 9.0 1.57 0.00 0.00 90 1010.1
20160728112435 63 117 8.0 9.0 1.57 0.00 0.00 90 1010.1
20160728112044 63 128 8.0 9.0 1.57 0.00 0.00 93 1010.0
20160728112013 63 128 8.0 9.0 1.57 0.00 0.00 93 1010.0
20160728111932 63 128 8.0 9.0 1.57 0.00 0.00 93 1010.0
20160728111515 63 149 8.0 9.0 1.57 0.00 0.00 93 1010.1
20160728111433 63 149 8.0 9.0 1.57 0.00 0.00 93 1010.1
20160728110932 63 148 8.0 9.0 1.57 0.00 0.00 93 1010.0
20160728110807 63 141 8.0 8.0 1.57 0.00 0.00 93 1010.1
20160728110514 63 141 8.0 8.0 1.57 0.00 0.00 93 1010.1
20160728110433 63 141 8.0 8.0 1.57 0.00 0.00 93 1010.1
20160728110043 63 132 8.0 9.0 1.57 0.00 0.00 93 1009.9
20160728105933 63 132 8.0 9.0 1.57 0.00 0.00 93 1009.9
20160728105518 63 134 8.0 9.0 1.57 0.00 0.00 93 1010.1
20160728105432 63 134 8.0 9.0 1.57 0.00 0.00 93 1010.1
20160728104933 63 100 7.0 8.0 1.57 0.00 0.00 93 1010.0
20160728104518 63 114 7.0 8.0 1.57 0.00 0.00 93 1009.9
20160728104432 63 114 7.0 8.0 1.57 0.00 0.00 93 1009.9
20160728104026 63 83 8.0 9.0 1.57 0.00 0.00 93 1009.9
20160728103932 63 83 8.0 9.0 1.57 0.00 0.00 93 1009.9
20160728103432 63 98 8.0 10.0 1.57 0.00 0.00 93 1009.8
20160728103021 63 82 6.0 8.0 1.57 0.00 0.00 93 1009.8
20160728102932 63 82 6.0 8.0 1.57 0.00 0.00 93 1009.8
20160728102523 63 131 7.0 8.0 1.57 0.00 0.00 93 1009.8
20160728102432 63 131 7.0 8.0 1.57 0.00 0.00 93 1009.8
20160728102005 63 138 8.0 8.0 1.57 0.00 0.00 93 1009.7
20160728101934 63 138 8.0 8.0 1.57 0.00 0.00 93 1009.7
20160728101509 64 165 5.0 6.0 1.57 0.00 0.00 93 1009.6
20160728101435 64 165 5.0 6.0 1.57 0.00 0.00 93 1009.6
20160728101031 64 205 6.0 6.0 1.57 0.00 0.00 93 1009.6
20160728100932 64 205 6.0 6.0 1.57 0.00 0.00 93 1009.6
20160728100433 64 239 7.0 9.0 1.57 0.00 0.00 93 1009.6
20160728100020 64 233 7.0 10.0 1.57 0.00 0.00 93 1009.5
20160728095932 64 233 7.0 10.0 1.57 0.00 0.00 93 1009.5
20160728095510 63 242 9.0 11.0 1.57 0.00 0.00 93 1009.5
20160728095433 63 242 9.0 11.0 1.57 0.00 0.00 93 1009.5
20160728095005 63 236 9.0 12.0 1.57 0.00 0.00 93 1009.4
20160728094934 63 236 9.0 12.0 1.57 0.00 0.00 93 1009.4
20160728094523 63 233 13.0 16.0 1.57 0.00 0.00 93 1009.6
20160728094435 63 233 13.0 16.0 1.57 0.00 0.00 93 1009.6
20160728094018 63 231 12.0 14.0 1.57 0.00 0.00 93 1009.4
20160728093933 63 231 12.0 14.0 1.57 0.00 0.00 93 1009.4
20160728093639 63 256 11.0 15.0 1.57 0.00 0.00 93 1009.4
20160728093506 63 256 11.0 15.0 1.57 0.00 0.00 93 1009.4
20160728093432 63 256 11.0 15.0 1.57 0.00 0.00 93 1009.4
20160728092932 63 240 12.0 14.0 1.57 0.00 0.00 93 1009.2
20160728092508 63 225 10.0 12.0 1.57 0.00 0.00 93 1009.1
20160728092432 63 225 10.0 12.0 1.57 0.00 0.00 93 1009.1
20160728092027 63 238 11.0 12.0 1.57 0.00 0.00 93 1009.2
20160728091933 63 238 11.0 12.0 1.57 0.00 0.00 93 1009.2
20160728091525 63 222 8.0 11.0 1.57 0.00 0.00 92 1009.4
20160728091434 63 222 8.0 11.0 1.57 0.00 0.00 92 1009.4
20160728090933 64 326 8.0 10.0 1.57 0.00 0.00 92 1009.4
20160728090513 64 243 7.0 9.0 1.57 0.00 0.00 91 1009.4
20160728090432 64 243 7.0 9.0 1.57 0.00 0.00 91 1009.4
20160728090016 64 281 7.0 8.0 1.57 0.00 0.00 91 1009.4
20160728085933 64 281 7.0 8.0 1.57 0.00 0.00 91 1009.4
20160728085508 64 270 10.0 11.0 1.57 0.00 0.00 91 1009.4
20160728085435 64 270 10.0 11.0 1.57 0.00 0.00 91 1009.4
20160728085047 64 280 1.0 9.0 1.57 0.00 0.00 92 1009.1
20160728085015 64 280 1.0 9.0 1.57 0.00 0.00 92 1009.1
20160728084933 64 280 1.0 9.0 1.57 0.00 0.00 92 1009.1
20160728084510 64 233 6.0 7.0 1.57 0.00 0.00 92 1009.2
20160728084437 64 233 6.0 7.0 1.57 0.00 0.00 92 1009.2
20160728084015 64 270 5.0 10.0 1.57 0.00 0.00 92 1009.2
20160728083933 64 270 5.0 10.0 1.57 0.00 0.00 92 1009.2
20160728083507 64 262 9.0 12.0 1.57 0.00 0.00 92 1009.5
20160728083434 64 262 9.0 12.0 1.57 0.00 0.00 92 1009.5
20160728083006 64 278 11.0 13.0 1.57 0.00 0.00 91 1009.5
20160728082935 64 278 11.0 13.0 1.57 0.00 0.00 91 1009.5
20160728082433 65 263 13.0 17.0 1.57 0.00 0.00 91 1009.7
20160728082132 65 284 13.0 17.0 1.57 0.00 0.00 91 1009.8
20160728082011 65 284 13.0 17.0 1.57 0.00 0.00 91 1009.8
20160728081933 65 284 13.0 17.0 1.57 0.00 0.00 91 1009.8
20160728081506 66 284 14.0 20.0 1.57 0.00 0.00 90 1009.8
20160728081434 66 284 14.0 20.0 1.57 0.00 0.00 90 1009.8
20160728081004 66 300 9.0 13.0 1.57 0.00 0.00 87 1009.6
20160728080932 66 300 9.0 13.0 1.57 0.00 0.00 87 1009.6
20160728080543 66 298 7.0 8.0 1.57 0.00 0.00 85 1009.2
20160728080436 66 298 7.0 8.0 1.57 0.00 0.00 85 1009.2
20160728080016 66 267 6.0 8.0 1.57 0.00 0.00 85 1009.2
20160728075933 66 267 6.0 8.0 1.57 0.00 0.00 85 1009.2
20160728075534 66 195 8.0 9.0 1.57 0.00 0.00 84 1009.2
20160728075434 66 195 8.0 9.0 1.57 0.00 0.00 84 1009.2
20160728075019 66 233 8.0 9.0 1.57 0.00 0.00 84 1009.1
20160728074932 66 233 8.0 9.0 1.57 0.00 0.00 84 1009.1
20160728074530 66 204 6.0 7.0 1.57 0.00 0.00 83 1009.4
20160728074432 66 204 6.0 7.0 1.57 0.00 0.00 83 1009.4
20160728074034 67 208 7.0 9.0 1.57 0.00 0.00 81 1009.2
20160728073932 67 208 7.0 9.0 1.57 0.00 0.00 81 1009.2
20160728073510 66 159 9.0 11.0 1.57 0.00 0.00 76 1009.5
20160728073432 66 159 9.0 11.0 1.57 0.00 0.00 76 1009.5
20160728073005 67 129 11.0 15.0 1.57 0.00 0.00 75 1009.5
20160728072933 67 129 11.0 15.0 1.57 0.00 0.00 75 1009.5
20160728072434 66 98 10.0 13.0 1.57 0.00 0.00 76 1009.4
20160728072028 66 52 12.0 15.0 1.57 0.00 0.00 80 1009.7
20160728071936 66 52 12.0 15.0 1.57 0.00 0.00 80 1009.7
20160728071436 66 23 12.0 15.0 1.57 0.00 0.00 83 1009.7
20160728071016 65 0 12.0 16.0 1.57 0.00 0.00 89 1009.7
20160728070932 65 0 12.0 16.0 1.57 0.00 0.00 89 1009.7
20160728070510 66 11 15.0 21.0 1.57 0.00 0.00 91 1009.5
20160728070433 66 11 15.0 21.0 1.57 0.00 0.00 91 1009.5
20160728070018 67 353 14.0 19.0 1.57 0.00 0.00 89 1009.5
20160728065932 67 353 14.0 19.0 1.57 0.00 0.00 89 1009.5
20160728065523 68 4 7.0 8.0 1.57 0.00 0.00 88 1009.1
20160728065433 68 4 7.0 8.0 1.57 0.00 0.00 88 1009.1
20160728065327 68 13 8.0 8.0 1.57 0.00 0.00 87 1009.0
20160728065006 68 13 8.0 8.0 1.57 0.00 0.00 87 1009.0
20160728064933 68 13 8.0 8.0 1.57 0.00 0.00 87 1009.0
20160728064432 68 35 6.0 6.0 1.57 0.00 0.00 87 1008.9
20160728064017 68 3 2.0 4.0 1.57 0.00 0.00 87 1008.8
20160728063936 68 3 2.0 4.0 1.57 0.00 0.00 87 1008.8
20160728063511 68 357 4.0 4.0 1.57 0.00 0.00 87 1008.8
20160728063432 68 357 4.0 4.0 1.57 0.00 0.00 87 1008.8
20160728063004 68 1 3.0 3.0 1.57 0.00 0.00 88 1008.8
20160728062933 68 1 3.0 3.0 1.57 0.00 0.00 88 1008.8
20160728062433 68 6 5.0 5.0 1.57 0.00 0.00 88 1008.9
20160728062020 68 357 5.0 5.0 1.57 0.00 0.00 88 1009.0
20160728061933 68 357 5.0 5.0 1.57 0.00 0.00 88 1009.0
20160728061436 68 0 5.0 6.0 1.57 0.00 0.00 88 1009.0
20160728060933 68 356 5.0 5.0 1.57 0.00 0.00 88 1009.0
20160728060433 68 359 3.0 3.0 1.57 0.00 0.00 89 1009.0
20160728055934 68 347 4.0 5.0 1.57 0.00 0.00 89 1009.1
20160728055508 67 349 5.0 5.0 1.57 0.00 0.00 89 1009.0
20160728055435 67 349 5.0 5.0 1.57 0.00 0.00 89 1009.0
20160728055010 67 336 5.0 6.0 1.57 0.00 0.00 89 1009.2
20160728054933 67 336 5.0 6.0 1.57 0.00 0.00 89 1009.2
20160728054523 67 330 5.0 6.0 1.57 0.00 0.00 89 1009.4
20160728054433 67 330 5.0 6.0 1.57 0.00 0.00 89 1009.4
20160728053933 68 346 5.0 6.0 1.57 0.00 0.00 89 1009.5
20160728053435 68 335 5.0 6.0 1.57 0.00 0.00 88 1009.4
20160728053026 68 342 6.0 6.0 1.57 0.00 0.00 88 1009.4
20160728052933 68 342 6.0 6.0 1.57 0.00 0.00 88 1009.4
20160728052433 67 336 6.0 6.0 1.57 0.00 0.00 88 1009.4
20160728051933 68 339 5.0 5.0 1.57 0.00 0.00 88 1009.4
20160728051518 68 18 6.0 6.0 1.57 0.00 0.00 88 1009.4
20160728051433 68 18 6.0 6.0 1.57 0.00 0.00 88 1009.4
20160728051005 68 340 5.0 6.0 1.57 0.00 0.00 87 1009.6
20160728050933 68 340 5.0 6.0 1.57 0.00 0.00 87 1009.6
20160728050508 68 330 5.0 6.0 1.57 0.00 0.00 86 1009.5
20160728050433 68 330 5.0 6.0 1.57 0.00 0.00 86 1009.5
20160728050029 68 353 5.0 5.0 1.57 0.00 0.00 85 1009.5
20160728045933 68 353 5.0 5.0 1.57 0.00 0.00 85 1009.5
20160728045924 69 30 5.0 5.0 1.57 0.00 0.00 84 1009.5
20160728045520 69 30 5.0 5.0 1.57 0.00 0.00 84 1009.5
20160728045433 69 30 5.0 5.0 1.57 0.00 0.00 84 1009.5
20160728045030 69 0 0.0 0.0 1.57 0.00 0.00 82 1009.5
20160728044933 69 0 0.0 0.0 1.57 0.00 0.00 82 1009.5
20160728044521 70 0 0.0 0.0 1.57 0.00 0.00 81 1009.4
20160728044434 70 0 0.0 0.0 1.57 0.00 0.00 81 1009.4
20160728043934 70 159 1.0 3.0 1.57 0.00 0.00 80 1009.4
20160728043434 70 172 6.0 6.0 1.57 0.00 0.00 81 1009.1
20160728043029 70 170 6.0 6.0 1.57 0.00 0.00 81 1009.2
20160728042933 70 170 6.0 6.0 1.57 0.00 0.00 81 1009.2
20160728042512 70 186 6.0 6.0 1.57 0.00 0.00 81 1009.1
20160728042433 70 186 6.0 6.0 1.57 0.00 0.00 81 1009.1
20160728042018 70 179 5.0 6.0 1.57 0.00 0.00 81 1009.1
20160728041934 70 179 5.0 6.0 1.57 0.00 0.00 81 1009.1
20160728041433 69 186 7.0 9.0 1.57 0.00 0.00 82 1009.0
20160728041023 69 187 9.0 10.0 1.57 0.00 0.00 82 1009.0
20160728040933 69 187 9.0 10.0 1.57 0.00 0.00 82 1009.0
20160728040437 69 167 10.0 12.0 1.57 0.00 0.00 82 1009.1
20160728040021 70 148 10.0 11.0 1.57 0.00 0.00 82 1008.8
20160728035934 70 148 10.0 11.0 1.57 0.00 0.00 82 1008.8
20160728035433 69 165 10.0 11.0 1.57 0.00 0.00 82 1009.0
20160728035120 70 156 9.0 9.0 1.57 0.00 0.00 82 1009.0
20160728034933 70 156 9.0 9.0 1.57 0.00 0.00 82 1009.0
20160728034433 69 131 7.0 8.0 1.57 0.00 0.00 82 1009.1
20160728034056 70 124 8.0 9.0 1.57 0.00 0.00 82 1009.2
20160728033934 70 124 8.0 9.0 1.57 0.00 0.00 82 1009.2
20160728033528 70 117 8.0 9.0 1.57 0.00 0.00 82 1009.1
20160728033433 70 117 8.0 9.0 1.57 0.00 0.00 82 1009.1
20160728033021 69 124 7.0 8.0 1.57 0.00 0.00 83 1009.2
20160728032934 69 124 7.0 8.0 1.57 0.00 0.00 83 1009.2
20160728032529 69 141 7.0 9.0 1.57 0.00 0.00 84 1009.2
20160728032433 69 141 7.0 9.0 1.57 0.00 0.00 84 1009.2
20160728032019 69 145 7.0 7.0 1.57 0.00 0.00 84 1009.2
20160728031936 69 145 7.0 7.0 1.57 0.00 0.00 84 1009.2
20160728031545 69 124 7.0 8.0 1.57 0.00 0.00 84 1009.4
20160728031434 69 124 7.0 8.0 1.57 0.00 0.00 84 1009.4
20160728031123 69 131 7.0 8.0 1.57 0.00 0.00 83 1009.1
20160728031022 69 131 7.0 8.0 1.57 0.00 0.00 83 1009.1
20160728030933 69 131 7.0 8.0 1.57 0.00 0.00 83 1009.1
20160728030617 70 111 8.0 9.0 1.57 0.00 0.00 83 1009.0
20160728030434 70 111 8.0 9.0 1.57 0.00 0.00 83 1009.0
20160728030102 69 135 8.0 10.0 1.57 0.00 0.00 83 1009.1
20160728030027 69 135 8.0 10.0 1.57 0.00 0.00 83 1009.1
20160728025933 69 135 8.0 10.0 1.57 0.00 0.00 83 1009.1
20160728025610 70 115 8.0 9.0 1.57 0.00 0.00 83 1009.2
20160728025511 70 115 8.0 9.0 1.57 0.00 0.00 83 1009.2
20160728025433 70 115 8.0 9.0 1.57 0.00 0.00 83 1009.2
20160728025053 70 101 8.0 10.0 1.57 0.00 0.00 83 1009.2
20160728024938 70 101 8.0 10.0 1.57 0.00 0.00 83 1009.2
20160728024531 70 63 10.0 12.0 1.57 0.00 0.00 83 1009.4
20160728024433 70 63 10.0 12.0 1.57 0.00 0.00 83 1009.4
20160728024010 70 80 9.0 11.0 1.57 0.00 0.00 83 1009.1
20160728023933 70 80 9.0 11.0 1.57 0.00 0.00 83 1009.1
20160728023436 70 86 10.0 11.0 1.57 0.00 0.00 82 1009.1
20160728023051 70 68 11.0 12.0 1.57 0.00 0.00 82 1008.9
20160728022933 70 68 11.0 12.0 1.57 0.00 0.00 82 1008.9
20160728022433 70 34 11.0 12.0 1.57 0.00 0.00 82 1009.0
20160728022037 70 41 11.0 13.0 1.57 0.00 0.00 81 1009.1
20160728021934 70 41 11.0 13.0 1.57 0.00 0.00 81 1009.1
20160728021453 71 55 10.0 11.0 1.57 0.00 0.00 81 1009.0
20160728020933 71 35 10.0 11.0 1.57 0.00 0.00 81 1008.8
20160728020523 71 34 10.0 11.0 1.57 0.00 0.00 81 1009.0
20160728020433 71 34 10.0 11.0 1.57 0.00 0.00 81 1009.0
20160728020023 71 28 10.0 11.0 1.57 0.00 0.00 81 1009.0
20160728015933 71 28 10.0 11.0 1.57 0.00 0.00 81 1009.0
20160728015508 71 18 10.0 12.0 1.57 0.00 0.00 81 1009.1
20160728015433 71 18 10.0 12.0 1.57 0.00 0.00 81 1009.1
20160728015010 71 27 9.0 11.0 1.57 0.00 0.00 81 1008.7
20160728014936 71 27 9.0 11.0 1.57 0.00 0.00 81 1008.7
20160728014537 71 21 9.0 10.0 1.57 0.00 0.00 80 1008.8
20160728014434 71 21 9.0 10.0 1.57 0.00 0.00 80 1008.8
20160728014028 71 17 8.0 10.0 1.57 0.00 0.00 80 1008.8
20160728013933 71 17 8.0 10.0 1.57 0.00 0.00 80 1008.8
20160728013506 72 13 9.0 10.0 1.57 0.00 0.00 80 1008.7
20160728013435 72 13 9.0 10.0 1.57 0.00 0.00 80 1008.7
20160728013041 72 0 8.0 10.0 1.57 0.00 0.00 80 1008.7
20160728012933 72 0 8.0 10.0 1.57 0.00 0.00 80 1008.7
20160728012825 71 10 9.0 10.0 1.57 0.00 0.00 80 1008.7
20160728012549 71 10 9.0 10.0 1.57 0.00 0.00 80 1008.7
20160728012516 71 10 9.0 10.0 1.57 0.00 0.00 80 1008.7
20160728012433 71 10 9.0 10.0 1.57 0.00 0.00 80 1008.7
20160728012037 72 8 9.0 10.0 1.57 0.00 0.00 80 1008.6
20160728011933 72 8 9.0 10.0 1.57 0.00 0.00 80 1008.6
20160728011540 72 352 9.0 11.0 1.57 0.00 0.00 80 1008.5
20160728011439 72 352 9.0 11.0 1.57 0.00 0.00 80 1008.5
20160728011047 72 24 8.0 11.0 1.57 0.00 0.00 79 1008.5
20160728010933 72 24 8.0 11.0 1.57 0.00 0.00 79 1008.5
20160728010509 72 354 8.0 10.0 1.57 0.00 0.00 79 1008.6
20160728010436 72 354 8.0 10.0 1.57 0.00 0.00 79 1008.6
20160728010046 72 0 8.0 10.0 1.57 0.00 0.00 79 1008.6
20160728005933 72 0 8.0 10.0 1.57 0.00 0.00 79 1008.6
20160728005511 72 346 8.0 10.0 1.57 0.00 0.00 78 1008.5
20160728005433 72 346 8.0 10.0 1.57 0.00 0.00 78 1008.5
20160728004933 73 350 8.0 10.0 1.57 0.00 0.00 77 1008.6
20160728004548 73 357 8.0 10.0 1.57 0.00 0.00 77 1008.4
20160728004433 73 357 8.0 10.0 1.57 0.00 0.00 77 1008.4
20160728003933 73 340 8.0 9.0 1.57 0.00 0.00 76 1008.3
20160728003512 73 342 8.0 10.0 1.57 0.00 0.00 76 1008.3
20160728003433 73 342 8.0 10.0 1.57 0.00 0.00 76 1008.3
20160728003029 73 335 8.0 10.0 1.57 0.00 0.00 75 1008.3
20160728002934 73 335 8.0 10.0 1.57 0.00 0.00 75 1008.3
20160728002434 74 359 8.0 11.0 1.57 0.00 0.00 74 1008.4
20160728002105 74 15 9.0 12.0 1.57 0.00 0.00 74 1008.3
20160728002031 74 15 9.0 12.0 1.57 0.00 0.00 74 1008.3
20160728001933 74 15 9.0 12.0 1.57 0.00 0.00 74 1008.3
20160728001605 74 336 8.0 12.0 1.57 0.00 0.00 73 1008.3
20160728001433 74 336 8.0 12.0 1.57 0.00 0.00 73 1008.3
20160728000933 75 328 6.0 13.0 1.57 0.00 0.00 73 1008.3
20160728000528 75 328 5.0 12.0 1.57 0.00 0.00 72 1008.4
20160728000433 75 328 5.0 12.0 1.57 0.00 0.00 72 1008.4
20160727235934 75 328 4.0 11.0 1.57 0.00 0.00 72 1008.5
20160727235610 75 354 3.0 10.0 1.57 0.00 0.00 72 1008.4
20160727235433 75 354 3.0 10.0 1.57 0.00 0.00 72 1008.4
20160727235010 75 332 3.0 9.0 1.57 0.00 0.00 71 1008.4
20160727234933 75 332 3.0 9.0 1.57 0.00 0.00 71 1008.4
20160727234537 76 345 5.0 10.0 1.57 0.00 0.00 70 1008.3
20160727234433 76 345 5.0 10.0 1.57 0.00 0.00 70 1008.3
20160727234007 76 318 5.0 12.0 1.57 0.00 0.00 70 1008.3
20160727233933 76 318 5.0 12.0 1.57 0.00 0.00 70 1008.3
20160727233542 76 309 7.0 13.0 1.57 0.00 0.00 70 1008.4
20160727233435 76 309 7.0 13.0 1.57 0.00 0.00 70 1008.4
20160727233213 76 322 5.0 14.0 1.57 0.00 0.00 69 1008.4
20160727232933 76 322 5.0 14.0 1.57 0.00 0.00 69 1008.4
20160727232556 76 316 6.0 16.0 1.57 0.00 0.00 68 1008.4
20160727232433 76 316 6.0 16.0 1.57 0.00 0.00 68 1008.4
20160727232014 77 321 2.0 16.0 1.57 0.00 0.00 68 1008.2
20160727231933 77 321 2.0 16.0 1.57 0.00 0.00 68 1008.2
20160727231530 77 321 2.0 10.0 1.57 0.00 0.00 68 1008.4
20160727231433 77 321 2.0 10.0 1.57 0.00 0.00 68 1008.4
20160727230933 77 55 1.0 7.0 1.57 0.00 0.00 67 1008.2
20160727230553 77 0 0.0 0.0 1.57 0.00 0.00 67 1008.1
20160727230436 77 0 0.0 0.0 1.57 0.00 0.00 67 1008.1
20160727225934 77 293 1.0 9.0 1.57 0.00 0.00 67 1008.2
20160727225533 78 304 2.0 9.0 1.57 0.00 0.00 68 1008.3
20160727225433 78 304 2.0 9.0 1.57 0.00 0.00 68 1008.3
20160727225023 78 333 1.0 9.0 1.57 0.00 0.00 67 1008.3
20160727224933 78 333 1.0 9.0 1.57 0.00 0.00 67 1008.3
20160727224625 78 0 0.0 0.0 1.57 0.00 0.00 67 1008.3
20160727224434 78 0 0.0 0.0 1.57 0.00 0.00 67 1008.3
20160727224053 78 325 2.0 10.0 1.57 0.00 0.00 66 1008.4
20160727223933 78 325 2.0 10.0 1.57 0.00 0.00 66 1008.4
20160727223541 78 305 3.0 10.0 1.57 0.00 0.00 66 1008.4
20160727223433 78 305 3.0 10.0 1.57 0.00 0.00 66 1008.4
20160727223115 78 329 1.0 7.0 1.57 0.00 0.00 66 1008.5
20160727222933 78 329 1.0 7.0 1.57 0.00 0.00 66 1008.5
20160727222641 78 321 3.0 10.0 1.57 0.00 0.00 65 1008.4
20160727222433 78 321 3.0 10.0 1.57 0.00 0.00 65 1008.4
20160727222056 78 328 1.0 9.0 1.57 0.00 0.00 65 1008.6
20160727221934 78 328 1.0 9.0 1.57 0.00 0.00 65 1008.6
20160727221614 78 0 0.0 0.0 1.57 0.00 0.00 64 1008.7
20160727221433 78 0 0.0 0.0 1.57 0.00 0.00 64 1008.7
20160727221053 79 294 5.0 9.0 1.57 0.00 0.00 63 1008.6
20160727220934 79 294 5.0 9.0 1.57 0.00 0.00 63 1008.6
20160727220603 79 300 5.0 10.0 1.57 0.00 0.00 62 1008.7
20160727220433 79 300 5.0 10.0 1.57 0.00 0.00 62 1008.7
20160727220043 79 359 4.0 13.0 1.57 0.00 0.00 60 1008.9
20160727215934 79 359 4.0 13.0 1.57 0.00 0.00 60 1008.9
20160727215529 80 359 3.0 16.0 1.57 0.00 0.00 60 1008.8
20160727215434 80 359 3.0 16.0 1.57 0.00 0.00 60 1008.8
20160727214934 80 359 2.0 13.0 1.57 0.00 0.00 57 1009.0
20160727214435 80 264 2.0 16.0 1.57 0.00 0.00 56 1008.8
20160727214052 80 0 0.0 0.0 1.57 0.00 0.00 55 1008.8
20160727213934 80 0 0.0 0.0 1.57 0.00 0.00 55 1008.8
20160727213520 80 333 2.0 10.0 1.57 0.00 0.00 54 1008.8
20160727213434 80 333 2.0 10.0 1.57 0.00 0.00 54 1008.8
20160727213049 80 325 3.0 10.0 1.57 0.00 0.00 55 1009.0
20160727212934 80 325 3.0 10.0 1.57 0.00 0.00 55 1009.0
20160727212434 80 314 4.0 12.0 1.57 0.00 0.00 53 1009.1
20160727211935 80 284 6.0 20.0 1.57 0.00 0.00 51 1009.0
20160727211555 80 283 2.0 14.0 1.57 0.00 0.00 52 1008.9
20160727211434 80 283 2.0 14.0 1.57 0.00 0.00 52 1008.9
20160727210934 81 305 2.0 10.0 1.57 0.00 0.00 52 1009.1
20160727210642 80 311 3.0 17.0 1.57 0.00 0.00 51 1009.1
20160727210434 80 311 3.0 17.0 1.57 0.00 0.00 51 1009.1
20160727210115 79 283 5.0 12.0 1.57 0.00 0.00 53 1009.0
20160727205934 79 283 5.0 12.0 1.57 0.00 0.00 53 1009.0
20160727205605 78 270 4.0 13.0 1.57 0.00 0.00 53 1009.1
20160727205435 78 270 4.0 13.0 1.57 0.00 0.00 53 1009.1
20160727205035 78 295 3.0 10.0 1.57 0.00 0.00 53 1009.0
20160727204934 78 295 3.0 10.0 1.57 0.00 0.00 53 1009.0
20160727204607 79 259 2.0 14.0 1.57 0.00 0.00 54 1009.2
20160727204434 79 259 2.0 14.0 1.57 0.00 0.00 54 1009.2
20160727204201 79 300 4.0 16.0 1.57 0.00 0.00 54 1009.2
20160727203934 79 300 4.0 16.0 1.57 0.00 0.00 54 1009.2
20160727203545 79 330 7.0 13.0 1.57 0.00 0.00 53 1009.1
20160727203434 79 330 7.0 13.0 1.57 0.00 0.00 53 1009.1
20160727203200 79 309 9.0 14.0 1.57 0.00 0.00 54 1009.5
20160727202934 79 309 9.0 14.0 1.57 0.00 0.00 54 1009.5
20160727202434 79 283 5.0 17.0 1.57 0.00 0.00 53 1009.6
20160727202054 79 294 5.0 18.0 1.57 0.00 0.00 53 1009.6
20160727201934 79 294 5.0 18.0 1.57 0.00 0.00 53 1009.6
20160727201434 79 293 3.0 12.0 1.57 0.00 0.00 54 1009.5
20160727201040 80 308 2.0 9.0 1.57 0.00 0.00 53 1009.5
20160727200934 80 308 2.0 9.0 1.57 0.00 0.00 53 1009.5
20160727200550 80 308 1.0 9.0 1.57 0.00 0.00 53 1009.5
20160727200434 80 308 1.0 9.0 1.57 0.00 0.00 53 1009.5
20160727195937 80 308 2.0 11.0 1.57 0.00 0.00 53 1009.7
20160727195434 80 353 2.0 13.0 1.57 0.00 0.00 55 1009.8
20160727195055 80 340 3.0 17.0 1.57 0.00 0.00 55 1009.8
20160727194934 80 340 3.0 17.0 1.57 0.00 0.00 55 1009.8
20160727194434 80 301 3.0 19.0 1.57 0.00 0.00 54 1009.9
20160727194038 79 287 3.0 18.0 1.57 0.00 0.00 55 1010.1
20160727193934 79 287 3.0 18.0 1.57 0.00 0.00 55 1010.1
20160727193529 80 298 3.0 16.0 1.57 0.00 0.00 54 1010.1
20160727193434 80 298 3.0 16.0 1.57 0.00 0.00 54 1010.1
20160727192053 76 330 2.0 13.0 1.57 0.00 0.00 56 1010.4
20160727191934 76 330 2.0 13.0 1.57 0.00 0.00 56 1010.4
20160727191624 77 298 3.0 19.0 1.57 0.00 0.00 55 1010.5
20160727191434 77 298 3.0 19.0 1.57 0.00 0.00 55 1010.5
20160727190934 76 325 3.0 10.0 1.57 0.00 0.00 54 1010.5
20160727190653 75 259 5.0 21.0 1.57 0.00 0.00 57 1010.5
20160727190434 75 259 5.0 21.0 1.57 0.00 0.00 57 1010.5
20160727185934 77 322 7.0 11.0 1.57 0.00 0.00 56 1010.6
20160727185557 76 304 7.0 15.0 1.57 0.00 0.00 56 1010.7
20160727185435 76 304 7.0 15.0 1.57 0.00 0.00 56 1010.7
20160727184934 79 281 10.0 20.0 1.57 0.00 0.00 57 1010.8
20160727184624 78 270 12.0 20.0 1.57 0.00 0.00 58 1010.8
20160727184434 78 270 12.0 20.0 1.57 0.00 0.00 58 1010.8
20160727184012 79 295 15.0 18.0 1.57 0.00 0.00 57 1010.9
20160727183934 79 295 15.0 18.0 1.57 0.00 0.00 57 1010.9
20160727183616 78 293 15.0 19.0 1.57 0.00 0.00 58 1011.0
20160727183434 78 293 15.0 19.0 1.57 0.00 0.00 58 1011.0
20160727183122 76 307 17.0 22.0 1.57 0.00 0.00 57 1010.9
20160727182934 76 307 17.0 22.0 1.57 0.00 0.00 57 1010.9
20160727182558 74 293 14.0 23.0 1.57 0.00 0.00 58 1011.1
20160727182434 74 293 14.0 23.0 1.57 0.00 0.00 58 1011.1
20160727182032 75 271 14.0 21.0 1.57 0.00 0.00 59 1011.3
20160727181934 75 271 14.0 21.0 1.57 0.00 0.00 59 1011.3
20160727181543 74 300 12.0 18.0 1.57 0.00 0.00 58 1011.2
20160727181435 74 300 12.0 18.0 1.57 0.00 0.00 58 1011.2